Location: Unspecified
(0.0000°N, 0.0000°E)
Time: 18:55:23
(UTC+02:00)

Ariane H10-3 - Visible Passes

Search period start: 30 July 2016 00:00
Search period end: 09 August 2016 00:00
Orbit: 284 x 20542 km, 7.3° (Epoch: 29 July)

Date Brightness Start Highest point End Pass type
(mag) Time Alt. Az. Time Alt. Az. Time Alt. Az.
30 Jul 8.7 05:23:35 44° WSW 08:19:31 88° NNW 10:07:15 10° E visible
30 Jul 5.3 22:42:57 10° WSW 23:26:24 - E 22:45:06 35° WSW visible
31 Jul 8.7 05:27:20 43° WSW 08:32:32 87° NNW 10:11:15 10° E visible
31 Jul 5.4 22:46:42 10° WSW 23:30:08 - E 22:48:41 32° WSW visible
01 Aug 8.7 05:31:04 42° WSW 08:44:30 86° NNW 10:15:13 10° E visible
01 Aug 5.5 22:50:25 10° WSW 23:33:49 - E 22:52:15 30° WSW visible
02 Aug 8.7 05:34:45 41° WSW 08:55:25 86° NNW 10:19:06 10° E visible
02 Aug 5.7 22:54:05 10° WSW 23:37:28 - E 22:55:46 28° WSW visible
03 Aug 8.7 05:38:24 40° W 09:05:23 85° NNW 10:22:58 10° E visible
03 Aug 5.8 22:57:41 10° WSW 23:41:05 - E 22:59:15 26° WSW visible
04 Aug 8.8 05:42:00 38° W 09:14:33 84° NNW 10:26:47 10° E visible
04 Aug 5.9 23:01:16 10° WSW 23:44:39 10° E 23:45:56 10° E visible
05 Aug 8.8 05:45:34 37° W 09:23:03 84° NNW 10:30:31 10° E visible
05 Aug 6.0 23:04:48 10° WSW 23:48:11 12° E 23:52:36 10° E visible
06 Aug 8.8 05:49:05 36° W 09:30:56 83° NNW 10:34:13 10° E visible
06 Aug 6.1 23:08:19 10° WSW 23:51:40 13° E 23:59:34 10° E visible
07 Aug 8.8 05:52:33 35° W 09:38:20 82° NNW 10:37:53 10° E visible
07 Aug 6.2 23:11:45 10° WSW 23:55:07 14° E 00:06:51 10° E visible
08 Aug 8.8 05:55:59 34° W 09:45:18 82° NNW 10:41:29 10° E visible
